Preview of NWS' New Version of Forecast
This preview is not operational and should not be used for support decisions.

Regional Weather Roundup (RWR)

Issued by National Weather Service (NWS)

                            
000
ASUS44 KJAN 190110
RWRMS 

MISSISSIPPI HOURLY WEATHER ROUNDUP
NATIONAL WEATHER SERVICE JACKSON MS
800 PM CDT THU APR 18 2019

NOTE: "FAIR: INDICATES FEW OR NO CLOUDS BELOW 12,000 FEET WITH NO
SIGNIFICANT WEATHER AND/OR OBSTRUCTIONS TO VISIBILITY.

MSZ001>002-007>008-010>013-018>021-025>028-034>036-190200-
NORTHWEST MISSISSIPPI
  
CITY           SKY/WX    TMP DP  RH WIND       PRES   REMARKS
BATESVILLE     CLOUDY    61  59  94 W5        29.58R                  
CLARKSDALE     CLOUDY    63  63 100 W7        29.59S                  
CLEVELAND      DRIZZLE   60  60 100 W5        29.61S                  
GREENWOOD      CLOUDY    61  59  93 W5        29.61R                  
GREENVILLE     CLOUDY    61  59  93 W6        29.61F                  
OLIVE BRANCH   CLOUDY    59  59 100 CALM      29.57R                  
OXFORD         FAIR      57  57 100 SE6G12    29.56R                  
TUNICA           N/A     59  59 100 W5        29.60R                  
WINONA         FAIR      58  58 100 SW3       29.59R                  
$$

MSZ003>006-009-014>017-022>024-029>033-037>039-190200-
NORTHEAST MISSISSIPPI
  
CITY           SKY/WX    TMP DP  RH WIND       PRES   REMARKS
ABERDEEN       LGT RAIN  59  59 100 E13G20    29.59F                  
COLUMBUS AFB   MOCLDY    61  59  94 E15       29.55F                  
CORINTH        RAIN      59  59 100 E9        29.60F                  
GOLDN TRIANGLE LGT RAIN  60  59  96 NE17      29.57F                  
STARKVILLE     FAIR      59  59 100 E5        29.57F                  
TUPELO         LGT RAIN  60  58  92 N13G28    29.55F                  
$$

MSZ040-058-190200-
CENTRAL MISSISSIPPI
  
CITY           SKY/WX    TMP DP  RH WIND       PRES   REMARKS
JACKSON INTL   CLOUDY    61  59  93 VRB3      29.62R                  
JACKSON HAWKNS CLOUDY    61  61 100 SW6       29.62R                  
MADISON        MOCLDY    59  59 100 CALM      29.61R                  
MERIDIAN KEY   LGT RAIN  64  61  90 SE9       29.65R FOG              
MERIDIAN NAS   RAIN      63  62  97 E13       29.65                   
RAYMOND        CLOUDY    63  63 100 W6        29.62R                  
VICKSBURG VKS  CLOUDY    63  63 100 SW7       29.65R                  
$$

MSZ059>079-190200-
SOUTH MISSISSIPPI
  
CITY           SKY/WX    TMP DP  RH WIND       PRES   REMARKS
HATTIESBURG    LGT RAIN  64  62  93 VRB5      29.64S                  
LAUREL         LGT RAIN  63  63  97 E7        29.64F                  
MCCOMB         CLOUDY    63  60  90 W5        29.64R                  
NATCHEZ        CLOUDY    61  60  97 SW7       29.67R                  
PINE BELT      LGT RAIN  63  62  97 VRB3      29.66R                  
$$

MSZ080>082-190200-
COASTAL MISSISSIPPI
  
CITY           SKY/WX    TMP DP  RH WIND       PRES   REMARKS
BAY ST LOUIS   MOCLDY    73  70  88 S18G29    29.62F                  
BILOXI         FAIR      74  71  89 SW22G31   29.63R                  
PASCAGOULA     FAIR      75  70  84 S10G20    29.62F                  
GULFPORT       LGT RAIN  74  70  87 S16G24    29.63R                  
$$

LAZ007>009-015>016-023>026-190200-
NORTHEAST LOUISIANA
  
CITY           SKY/WX    TMP DP  RH WIND       PRES   REMARKS
BASTROP        CLOUDY    61  61  98 CALM      29.64F                  
TALLULAH/VBURG CLOUDY    62  60  93 VRB5      29.64S                  
VIDALIA        CLOUDY    63  61  93 S6        29.66R                  
$$